Regional Weather Roundup
Issued by NWS

Home | Current Version | Previous Version | Graphics & Text | Print | Product List | Glossary On
Versions: 1 2 3 4 5 6 7 8 9 10 11 12 13 14 15 16 17 18 19 20 21 22 23 24 25 26 27 28 29 30 31 32 33 34 35 36 37 38 39 40 41 42 43 44 45 46 47 48 49 50
000
ASUS43 KMKX 251959
RWRWI

WISCONSIN REGIONAL WEATHER ROUNDUP
NATIONAL WEATHER SERVICE MILWAUKEE/SULLIVAN WI
200 PM CST SUN JAN 25 2015

NOTE: "FAIR" INDICATES FEW OR NO CLOUDS BELOW 12,000 FEET WITH NO
SIGNIFICANT WEATHER AND/OR OBSTRUCTIONS TO VISIBILITY.

WIZ001-002-006>008-014>016-023>028-252100-
NORTHWEST WISCONSIN

CITY           SKY/WX    TMP DP  RH WIND       PRES   REMARKS
SUPERIOR ARPT  CLOUDY    23  15  70 E10       30.08R WCI  13
ASHLAND        PTSUNNY   20  10  65 NE8       30.08R WCI  10
HAYWARD        CLOUDY    22   8  55 VRB3      30.02S
SIREN          CLOUDY    25  12  58 N6        30.03S WCI  18
CUMBERLAND     CLOUDY    21   9  58 E5        30.02S WCI  15
RICE LAKE      CLOUDY    22  10  59 CALM      30.03S
CHETEK         PTSUNNY   22  10  59 CALM      30.02F
LADYSMITH      PTSUNNY   22  10  60 NE6       30.02F WCI  14
EAU CLAIRE     MOSUNNY   24  11  57 NE7       30.02R WCI  16
MENOMONIE      MOSUNNY   25  12  57 NE6       30.02F WCI  18
NEW RICHMOND   SUNNY     23  11  61 E5        30.03S WCI  16
OSCEOLA        SUNNY     25  12  58 NE6       30.06F WCI  18
$$

WIZ003>005-009-010-017-018-252100-
NORTH CENTRAL WISCONSIN

CITY           SKY/WX    TMP DP  RH WIND       PRES   REMARKS
MANITOWISH WTR CLOUDY    17   5  59 CALM      29.98F
ARBOR VITAE    CLOUDY    19   7  59 S3        29.98F
WOODRUFF       CLOUDY    19   7  59 S3        29.98F
RHINELANDER    CLOUDY    18   5  57 SE6       29.98F WCI  10
EAGLE RIVER    FAIR      17   4  55 CALM      29.98S
LAND O LAKES   CLOUDY    19   5  56 CALM      29.99S
PHILLIPS       CLOUDY    19   6  57 CALM      29.99F
TOMAHAWK       PTSUNNY   20   6  54 CALM      30.00F
MEDFORD        PTSUNNY   21   7  56 E5        29.98F WCI  14
MERRILL        SUNNY     20   6  53 NE3       30.00S
$$

WIZ029-030-035-036-043>047-252100-
CENTRAL WISCONSIN

CITY           SKY/WX    TMP DP  RH WIND       PRES   REMARKS
WAUSAU         SUNNY     20   7  57 NE9       29.98S WCI   9
MOSINEE        SUNNY     21   9  58 N7        29.99F WCI  13
MARSHFIELD     MOSUNNY   21   9  59 E8        29.99S WCI  11
STEVENS POINT  SUNNY     18   6  58 E10       30.00F WCI   6
WAUPACA        MOSUNNY   24  10  53 E10G16    30.01F WCI  14
WAUTOMA        NOT AVBL
WISC RAPIDS    SUNNY     21   7  54 E9        30.01S WCI  11
CAMP DOUGLAS   NOT AVBL
$$

WIZ011>013-019>022-031-037>040-048>050-252100-
NORTHEAST WISCONSIN

CITY           SKY/WX    TMP DP  RH WIND       PRES   REMARKS
ANTIGO         SUNNY     17   6  60 N6        29.98S WCI   9
SHAWANO        PTSUNNY   23  10  58 NE7       30.04F WCI  14
OCONTO         SUNNY     20   8  59 CALM      30.05F
STURGEON BAY   MOSUNNY   18   9  68 N16       30.04F WCI   3
GREEN BAY      SUNNY     21  11  65 NE20      30.02F WCI   6
MANITOWOC      NOT AVBL
APPLETON       PTSUNNY   21   9  58 NE15      30.00F WCI   8
CLINTONVILLE   SUNNY     21   9  58 E9        30.02F WCI  11
OSHKOSH        PTSUNNY   22  13  68 NE18      29.99F WCI   7
$$

WIZ032>034-041-042-053>061-252100-
SOUTHWEST WISCONSIN

CITY           SKY/WX    TMP DP  RH WIND       PRES   REMARKS
LA CROSSE      MOSUNNY   30  16  56 E8        29.98F WCI  22
SPARTA         PTSUNNY   26  14  60 NE9       30.00F WCI  17
VIROQUA        CLOUDY    25  17  71 NE9       29.94F WCI  16
BOSCOBEL       MOSUNNY   27  14  58 NE9G18    29.97F WCI  18
PRAIRIE DU CHI SUNNY     29  17  59 NE15      29.95F WCI  18
PLATTEVILLE    CLOUDY    25  19  80 N22       29.91S WCI  10
$$

WIZ056-057-062-063-064-067-068-252100-
SOUTH CENTRAL WISCONSIN

CITY           SKY/WX    TMP DP  RH WIND       PRES   REMARKS
REEDSBURG      CLOUDY    22  12  66 NE13      29.97F WCI  10
BARABOO/DELLS  CLOUDY    22  13  69 NE14G20   29.96F WCI  10
LONE ROCK      NOT AVBL
MINERAL POINT  CLOUDY    27  19  74 NE16G23   29.91S WCI  14
MADISON        PTSUNNY   25  15  66 NE18      29.94S WCI  11
MIDDLETON      CLOUDY    26  16  67 N16       29.94S WCI  13
WATERTOWN      SUNNY     27  11  50 NE15      29.93R WCI  16
MONROE         CLOUDY    27  18  69 NE22G29   29.88R WCI  12
JANESVILLE     PTSUNNY   28  14  54 NE20G25   29.90R WCI  15
$$

WIZ051-052-058>065-066-070>072-252100-
SOUTHEAST WISCONSIN

CITY           SKY/WX    TMP DP  RH WIND       PRES   REMARKS
MILWAUKEE      PTSUNNY   26  14  60 NE21G26   29.92R WCI  12
WAUKESHA       MOSUNNY   25  10  54 N18G25    29.92S WCI  11
MILWAUKEE/TIMM SUNNY     25  10  54 NE18G26   29.94R WCI  11
RACINE         CLOUDY    26  15  63 N22G30    29.92R WCI  12
BURLINGTON     CLOUDY    24  14  64 NE18G28   29.89S WCI  10
KENOSHA        CLOUDY    27  16  63 NE20G29   29.89R WCI  13
FOND DU LAC    MOSUNNY   22  13  68 N18G25    29.98S WCI   7
SHEBOYGAN      MOSUNNY   24  11  57 NE18G32   29.97F WCI  10
WEST BEND      SUNNY     25  10  54 NE18G25   29.94S WCI  11
JUNEAU         MOSUNNY   26   9  49 N17G24    29.95S WCI  12
$$

LSZ147-162-252100-
LAKE SUPERIOR

STATION/POSITION TIME  TEMP    WIND        PRES    WAVE
                       AIR SEA DIR/SP/G            HT/PER
                 (UTC) (F)     (DEG/KT/KT) (MB)    (FT/S)
DEVILS ISLAND    1900   19      50/ 17/ 19 1020.2F
PORT WING        1900   22      50/  4/ 10 1018.6F
SAXON HARBOR     1900   21      30/  5/  7 1018.6F
$$

LMZ867-665-643>646-252100-
LAKE MICHIGAN

STATION/POSITION TIME  TEMP    WIND        PRES    WAVE
                       AIR SEA DIR/SP/G            HT/PER
                 (UTC) (F)     (DEG/KT/KT) (MB)    (FT/S)
NORTHPORT PIER   1908   17     350/ 12/ 15 1018.3S
SISTER BAY       1813   20      20/ 10/ 14   N/A
KEWAUNEE LAKESHO 1900   22      40/ 19/ 22 1016.0R
SHEBOYGAN LAKESH 1900   22      30/ 24/ 26 1016.4R
PORT WASHINGTON  1940   24      40/ 20     1015.2S
MILWAUKEE LAKESH 1900   25      20/ 23/ 26   N/A
KENOSHA   LAKESH 1900   26      30/ 24/ 28 1011.9R
$$

TC  - TEMPERATURE IN CELSIUS
VSB - VISIBILITY IN STATUTE MILES
WCI - WIND CHILL INDEX
HX  - HEAT INDEX




USA.gov is the U.S. government's official web portal to all federal, state and local government web resources and services.